Regional Weather Roundup
Issued by NWS

Home | Current Version | Previous Version | Graphics & Text | Print | Product List | Glossary On
Versions: 1 2 3 4 5 6 7 8 9 10 11 12 13 14 15 16 17 18 19 20 21 22 23 24 25 26 27 28 29 30 31 32 33 34 35 36 37 38 39 40 41 42 43 44 45 46 47 48 49 50
000
ASUS43 KFSD 262202
RWRSD

WEATHER ROUNDUP FOR SOUTH DAKOTA
NATIONAL WEATHER SERVICE SIOUX FALLS SD
500 PM CDT TUE AUG 26 2014

NOTE: "FAIR" INDICATES FEW OR NO CLOUDS BELOW 12,000 FEET WITH NO
SIGNIFICANT WEATHER AND/OR OBSTRUCTIONS TO VISIBILITY.


SDZ001>005-009-010-012>017-262300-
NORTHWEST AND NORTH CENTRAL SOUTH DAKOTA

CITY           SKY/WX    TMP DP  RH WIND       PRES   REMARKS
BUFFALO          N/A     70  54  56 NE8       30.07S
FAITH            N/A     70  55  59 SE10G20   30.11F
MOBRIDGE       CLOUDY    64  54  69 E8        30.12F
$$

SDZ012>016-024>037-041>051-057-063-072>074-262300-
SOUTHWEST AND SOUTH CENTRAL SOUTH DAKOTA

CITY           SKY/WX    TMP DP  RH WIND       PRES   REMARKS
RAPID CTY ARPT MOSUNNY   76  59  55 NE7       30.10F
PIERRE         MOSUNNY   72  53  51 SE14      30.11F
CUSTER         MOSUNNY   75  51  43 SW7       30.19F
ELLSWORTH AFB  MOSUNNY   74  60  60 SE6       30.10F
PHILIP         SUNNY     76  56  49 E13G24    30.07F
PINE RIDGE     MOSUNNY   82  61  48 NE8       30.07F
WINNER         FAIR      78  55  44 SE12G23   30.11F
$$

SDZ004>011-016>023-039-040-262300-
NORTHEAST SOUTH DAKOTA

CITY           SKY/WX    TMP DP  RH WIND       PRES   REMARKS
ABERDEEN       PTSUNNY   61  52  72 S5        30.18F
WATERTOWN      CLOUDY    65  54  67 S3        30.18S
SISSETON         N/A     66  53  63 CALM      30.17S
$$

SDZ017-020-022-023-036>040-048>070-262300-
SOUTHEAST SOUTH DAKOTA

CITY           SKY/WX    TMP DP  RH WIND       PRES   REMARKS
SIOUX FALLS    PTSUNNY   72  57  59 E6        30.16F
HURON          PTSUNNY   68  52  56 E5        30.14F
CHAMBERLAIN    MOSUNNY   72  56  57 E10       30.12F
MITCHELL       MOSUNNY   74  57  55 E5        30.14F
YANKTON        PTSUNNY   70  59  68 E8        30.14F
$$

ABBREVIATIONS USED IN REMARKS
   TC - TEMPERATURE IN CELSIUS
  WCI - WIND CHILL INDEX
   HX - HEAT INDEX
  VSB - VISIBILITY




USA.gov is the U.S. government's official web portal to all federal, state and local government web resources and services.